Location: Courçay
(47.2523°N, 0.8761°E)
Time: 03:18:05
(UTC+00:00)

Cosmos 1975 Rocket - Pass Details

Date: 18 November 2025
Orbit: 597 x 626 km, 82.5° (Epoch: 04 December)

Event Time Altitude Azimuth Distance (km) Brightness Sun altitude
Rises 17:41:43 0° 344° (NNW) 2,872 6.5 -14.1°
Reaches altitude 10° 17:44:01 10° 338° (NNW) 1,968 5.7 -14.5°
Maximum altitude 17:48:07 42° 267° (W) 873 4.4 -15.2°
Drops below altitude 10° 17:52:14 10° 197° (SSW) 1,969 6.0 -15.9°
Sets 17:54:32 0° 190° (S) 2,874 6.8 -16.2°
